(279811) = 2000 GN21 = 2005 US248

Discovered at Socorro on 2000-04-05 by LINEAR.

Orbit

Orbit type: Main Belt

Note: WebGL enabled browser required.

epoch2023-09-13.0
epoch JD2460200.5
perihelion date2022-03-16.64368
perihelion JD2459655.14368
argument of perihelion (°)54.53882
ascending node (°)186.63815
inclination (°)1.79525
eccentricity0.1506692
perihelion distance (AU)1.9966266
Tisserand w.r.t. Jupiter3.5
ΔV w.r.t. Earth (km/sec)8.8
semimajor axis (AU)2.3508232
mean anomaly (°)149.12630
mean daily motion (°/day)0.27344750
aphelion distance (AU)2.705
period (years)3.6
P-vector [x]-0.48215218
P-vector [y]-0.81360356
P-vector [z]-0.32492850
Q-vector [x]0.87608000
Q-vector [y]-0.44929362
Q-vector [z]-0.17498307
absolute magnitude17.79
phase slope0.15
uncertainty0
referenceMPO 779006
observations used225
oppositions13
arc length (days)8630
first opposition used2000
last opposition used2023
residual rms (arc-secs)0.75
perturbers coarse indicatorM-v
perturbers precise indicator003Ek
first observation date used2000-03-29.0
last observation date used2023-11-13.0
computer nameMPCLINUX
JD of orbit computation2456760.625321
perihelion JD uncertainty (days)4.1724E-05
argument of perihelion uncertainty (°)1.0247E-04
ascending node uncertainty (°)1.0182E-04
inclination uncertainty (°)3.6544E-06
eccentricity uncertainty 4.0835E-08
perihelion distance uncertainty (AU)9.3881E-08
Minimum Orbit Intersection Distances (in AU)
for orbit epoch: 2460200.5, reference: E2023-VP5
Mercury1.53415
Venus1.27171
Earth0.98384
Mars0.43532
Jupiter2.29629
Saturn6.37361
Uranus16.1327
Neptune27.1663

Observations

227 total observations over interval: 2000 03 29.24991 – 2023 11 13.89229
These data are available for download (format description).

Date (UT) J2000 RA J2000 Dec Magn Location Ref
2000 03 29.24991 12 56 14.49 -05 40 40.4 20.2 V 691 – Steward Observatory, Kitt Peak-Spacewatch MPS 16980
2000 03 29.27105 12 56 13.35 -05 40 31.6 20.3 V 691 – Steward Observatory, Kitt Peak-Spacewatch MPS 16980
2000 03 29.29199 12 56 12.22 -05 40 23.4 19.9 V 691 – Steward Observatory, Kitt Peak-Spacewatch MPS 16980
2000 04 05.27575 12 50 04.53 -04 52 20.7 19.0   704 – Lincoln Laboratory ETS, New Mexico MPS 12700
2000 04 05.29345 12 50 03.55 -04 52 13.0 20.2   704 – Lincoln Laboratory ETS, New Mexico MPS 12700
2000 04 05.29382 12 50 03.53 -04 52 12.9 20.0   704 – Lincoln Laboratory ETS, New Mexico MPS 12700
2000 04 05.30859 12 50 02.73 -04 52 05.5 20.2   704 – Lincoln Laboratory ETS, New Mexico MPS 12700
2000 04 05.30896 12 50 02.67 -04 52 06.5 19.9   704 – Lincoln Laboratory ETS, New Mexico MPS 12700
2000 04 05.32303 12 50 01.86 -04 52 00.5 19.2   704 – Lincoln Laboratory ETS, New Mexico MPS 12700
2000 04 05.32339 12 50 01.84 -04 52 01.4 19.3   704 – Lincoln Laboratory ETS, New Mexico MPS 12700
2000 04 05.32390 12 50 01.82 -04 52 01.1 19.7 V 691 – Steward Observatory, Kitt Peak-Spacewatch MPS 12700
2000 04 05.33745 12 50 01.12 -04 51 55.0 19.7   704 – Lincoln Laboratory ETS, New Mexico MPS 12700
2000 04 05.33781 12 50 01.01 -04 51 55.1 19.6   704 – Lincoln Laboratory ETS, New Mexico MPS 12700
2000 04 05.34489 12 50 00.63 -04 51 52.5 20.1 V 691 – Steward Observatory, Kitt Peak-Spacewatch MPS 12700
2000 04 05.36636 12 49 59.43 -04 51 43.4 19.9 V 691 – Steward Observatory, Kitt Peak-Spacewatch MPS 12700
2000 04 06.28567 12 49 10.68 -04 45 19.5 19.3   704 – Lincoln Laboratory ETS, New Mexico MPS 12700
2000 04 06.29966 12 49 09.88 -04 45 14.4 19.3   704 – Lincoln Laboratory ETS, New Mexico MPS 12700
2000 04 06.31367 12 49 09.12 -04 45 07.7 19.2   704 – Lincoln Laboratory ETS, New Mexico MPS 12700
2000 04 06.32768 12 49 08.25 -04 45 02.1 19.2   704 – Lincoln Laboratory ETS, New Mexico MPS 12700
2000 04 07.27471 12 48 18.19 -04 38 27.6 20.3 V 691 – Steward Observatory, Kitt Peak-Spacewatch MPS 12700
2000 04 07.27862 12 48 17.97 -04 38 26.0 20.6 V 691 – Steward Observatory, Kitt Peak-Spacewatch MPS 12700
2000 04 07.28260 12 48 17.74 -04 38 24.4 20.4 V 691 – Steward Observatory, Kitt Peak-Spacewatch MPS 12700
2000 04 12.23355 12 43 59.87 -04 04 34.6 20.5 V 691 – Steward Observatory, Kitt Peak-Spacewatch MPS 12700
2000 04 12.25422 12 43 58.78 -04 04 26.1 20.1 V 691 – Steward Observatory, Kitt Peak-Spacewatch MPS 12700
2000 04 12.27492 12 43 57.66 -04 04 17.8 20.5 V 691 – Steward Observatory, Kitt Peak-Spacewatch MPS 12700
2005 10 28.31034 03 29 41.17 +17 06 10.6 20.8 V G96 – Mt. Lemmon Survey MPS 149863
2005 10 28.31711 03 29 40.81 +17 06 09.4 21.6 V G96 – Mt. Lemmon Survey MPS 149863
2005 10 28.32403 03 29 40.45 +17 06 07.5 21.4 V G96 – Mt. Lemmon Survey MPS 149863
2005 10 28.33083 03 29 40.12 +17 06 05.0 22.5 V G96 – Mt. Lemmon Survey MPS 149863
2005 10 29.26190 03 28 48.99 +17 02 20.3 21.0 V 691 – Steward Observatory, Kitt Peak-Spacewatch MPS 149863
2005 10 29.28044 03 28 47.94 +17 02 15.9 21.6 V 691 – Steward Observatory, Kitt Peak-Spacewatch MPS 149863
2005 10 29.29775 03 28 46.93 +17 02 12.8 21.2 V 691 – Steward Observatory, Kitt Peak-Spacewatch MPS 149863
2005 10 29.38160 03 28 42.16 +17 01 51.5 22.1 V G96 – Mt. Lemmon Survey MPS 155162
2005 10 29.38844 03 28 41.77 +17 01 49.7 21.1 V G96 – Mt. Lemmon Survey MPS 155162
2005 10 29.39508 03 28 41.34 +17 01 48.2 21.5 V G96 – Mt. Lemmon Survey MPS 155162
2005 10 29.40205 03 28 40.94 +17 01 46.5 21.4 V G96 – Mt. Lemmon Survey MPS 155162
2005 12 01.23943 02 56 38.25 +14 42 04.0 21.5 V G96 – Mt. Lemmon Survey MPS 151799
2005 12 01.24525 02 56 37.93 +14 42 03.2 20.4 V G96 – Mt. Lemmon Survey MPS 151799
2005 12 01.25106 02 56 37.64 +14 42 01.9 21.4 V G96 – Mt. Lemmon Survey MPS 151799
2005 12 01.25694 02 56 37.35 +14 42 00.9 21.5 V G96 – Mt. Lemmon Survey MPS 151799
2007 02 21.25362 10 50 05.66 +05 44 04.1 20.6 V 691 – Steward Observatory, Kitt Peak-Spacewatch MPS 200251
2007 02 21.27171 10 50 04.62 +05 44 10.6 20.8 V 691 – Steward Observatory, Kitt Peak-Spacewatch MPS 200251
2007 02 21.29670 10 50 03.22 +05 44 20.1 20.4 V 691 – Steward Observatory, Kitt Peak-Spacewatch MPS 200251
2007 02 25.26734 10 46 23.49 +06 09 37.4 20.5 V 691 – Steward Observatory, Kitt Peak-Spacewatch MPS 201413
2007 02 25.29187 10 46 22.06 +06 09 47.1 20.3 V 691 – Steward Observatory, Kitt Peak-Spacewatch MPS 201413
2007 02 25.31295 10 46 20.78 +06 09 55.4 20.1 V 691 – Steward Observatory, Kitt Peak-Spacewatch MPS 201413
2007 04 07.20849 10 16 19.48 +09 53 29.4 20.8 V G96 – Mt. Lemmon Survey MPS 206116
2007 04 07.21596 10 16 19.38 +09 53 30.9 21.1 V G96 – Mt. Lemmon Survey MPS 206116
2007 04 07.22328 10 16 19.27 +09 53 31.7 21.0 V G96 – Mt. Lemmon Survey MPS 206116
2007 04 07.23054 10 16 19.12 +09 53 32.9 20.9 V G96 – Mt. Lemmon Survey MPS 206116
2008 09 06.29719 23 12 45.46 -03 52 50.8 20.2 V G96 – Mt. Lemmon Survey MPS 255739
2008 09 06.30290 23 12 45.14 -03 52 53.6 20.3 V G96 – Mt. Lemmon Survey MPS 255739
2008 09 06.30875 23 12 44.78 -03 52 55.6 20.4 V G96 – Mt. Lemmon Survey MPS 255739
2008 09 06.31444 23 12 44.46 -03 52 57.9 20.3 V G96 – Mt. Lemmon Survey MPS 255739
2010 01 04.17755 05 37 04.68 +20 32 32.3   691 – Steward Observatory, Kitt Peak-Spacewatch MPS 309215
2010 01 04.20205 05 37 03.16 +20 32 33.1   691 – Steward Observatory, Kitt Peak-Spacewatch MPS 309215
2010 01 04.22309 05 37 01.89 +20 32 32.7   691 – Steward Observatory, Kitt Peak-Spacewatch MPS 309215
2011 05 12.35772 15 52 05.80 -17 25 19.0 19.0 V G96 – Mt. Lemmon Survey MPS 382099
2011 05 12.36584 15 52 05.34 -17 25 17.0 19.4 V G96 – Mt. Lemmon Survey MPS 382099
2011 05 12.37396 15 52 04.87 -17 25 15.0 19.5 V G96 – Mt. Lemmon Survey MPS 382099
2011 05 12.38209 15 52 04.40 -17 25 13.0 19.2 V G96 – Mt. Lemmon Survey MPS 382099
2011 05 21.31036 15 43 59.26 -16 49 48.2 19.0 V G96 – Mt. Lemmon Survey MPS 383277
2011 05 21.32537 15 43 58.40 -16 49 44.4 19.3 V G96 – Mt. Lemmon Survey MPS 383277
2011 05 21.33289 15 43 57.97 -16 49 42.4 19.1 V G96 – Mt. Lemmon Survey MPS 383277
2011 05 21.42177 15 43 53.204 -16 49 20.69 19.4 i F51 – Pan-STARRS 1, Haleakala MPS 383277
2011 05 21.43826 15 43 52.241 -16 49 16.74 19.2 i F51 – Pan-STARRS 1, Haleakala MPS 383277
2011 05 21.45658 15 43 51.165 -16 49 12.39 19.8 r F51 – Pan-STARRS 1, Haleakala MPS 383277
2011 05 21.47180 15 43 50.275 -16 49 08.87 19.4 r F51 – Pan-STARRS 1, Haleakala MPS 383277
2011 05 25.23294 15 40 25.66 -16 34 52.5 19.9 V 691 – Steward Observatory, Kitt Peak-Spacewatch MPS 383277
2011 05 25.24814 15 40 24.76 -16 34 49.1 19.7 V 691 – Steward Observatory, Kitt Peak-Spacewatch MPS 383277
2011 05 25.26335 15 40 23.91 -16 34 45.8 19.8 V 691 – Steward Observatory, Kitt Peak-Spacewatch MPS 383277
2011 05 28.24339 15 37 46.45 -16 24 01.6 19.6 V 691 – Steward Observatory, Kitt Peak-Spacewatch MPS 383962
2011 05 28.26114 15 37 45.48 -16 23 58.0 19.9 V 691 – Steward Observatory, Kitt Peak-Spacewatch MPS 383962
2011 05 28.27888 15 37 44.51 -16 23 54.3 19.9 V 691 – Steward Observatory, Kitt Peak-Spacewatch MPS 383962
2011 06 03.24049 15 32 53.20 -16 04 40.9 20.1 V 691 – Steward Observatory, Kitt Peak-Spacewatch MPS 383962
2011 06 03.25827 15 32 52.32 -16 04 37.6 19.9 V 691 – Steward Observatory, Kitt Peak-Spacewatch MPS 383962
2011 06 03.27605 15 32 51.45 -16 04 34.4 19.6 V 691 – Steward Observatory, Kitt Peak-Spacewatch MPS 383962
2011 06 07.23455 15 30 02.66 -15 53 56.1 20.2 V 691 – Steward Observatory, Kitt Peak-Spacewatch MPS 384629
2011 06 07.25234 15 30 01.89 -15 53 53.4 19.7 V 691 – Steward Observatory, Kitt Peak-Spacewatch MPS 384629
2011 06 07.27012 15 30 01.15 -15 53 50.7 19.8 V 691 – Steward Observatory, Kitt Peak-Spacewatch MPS 384629
2011 06 11.23647 15 27 36.84 -15 45 11.9 19.8 V 691 – Steward Observatory, Kitt Peak-Spacewatch MPS 384629
2011 06 11.25427 15 27 36.22 -15 45 10.4 20.1 V 691 – Steward Observatory, Kitt Peak-Spacewatch MPS 384630
2011 06 11.27203 15 27 35.54 -15 45 08.5 20.5 V 691 – Steward Observatory, Kitt Peak-Spacewatch MPS 384630
2012 10 17.404793 02 06 08.117 +11 34 41.63 21.3 w F51 – Pan-STARRS 1, Haleakala MPS 437720
